Hartsville, SC

8:13 AM EDT on October 23, 2017 (GMT -0400)
Hartsville Regional

Weather History for KHVS - August, 2014

Change the Weather History Date:

Thursday, August 21, 2014

  Actual Average (KFLO) Record (KFLO)
Temperature  
Mean Temperature 84 °F -  
Max Temperature 96 °F 89 °F 103 °F (1983)
Min Temperature 73 °F 70 °F 59 °F (1953)
Cooling Degree Days 20    
Growing Degree Days 34 (Base 50)    
Moisture  
Dew Point 44 °F    
Average Humidity 37    
Maximum Humidity 94    
Minimum Humidity 4    
Precipitation  
Precipitation 0.00 in - - ()
Sea Level Pressure  
Sea Level Pressure 30.06 in    
Wind  
Wind Speed 2 mph (North)    
Max Wind Speed 10 mph    
Max Gust Speed -    
Visibility 10 miles    
Events      
Averages and records for this station are not official NWS values.
T = Trace of Precipitation, MM = Missing Value Source: NWS Daily Summary

Daily Weather History Graph

Daily Weather History Graph

Search for Another Location

Airport or City:

Trip Planner

Search our weather history database for the weather conditions in past years. The results will help you decide how hot, cold, wet, or windy it might be!

Date:

Astronomy

Aug. 21, 2014 Rise Set
Actual Time 6:45 AM EDT 8:00 PM EDT
Civil Twilight 6:19 AM EDT 8:26 PM EDT
Nautical Twilight 5:48 AM EDT 8:58 PM EDT
Astronomical Twilight 5:15 AM EDT 9:30 PM EDT
Moon 3:18 AM EDT (8/21) 5:24 PM EDT (8/21)
Length of Visible Light 14h 07m
Length of Day
13h 14m
Waning Crescent, 13% of the Moon is Illuminated
Aug 21
Waning Crescent
Aug 25
New
Sep 2
First Quarter
Sep 8
Full
Sep 15
Last Quarter

Hourly Weather History & Observations

Time (EDT) Temp. Heat Index Dew Point Humidity Pressure Visibility Wind Dir Wind Speed Gust Speed Precip Events Conditions
12:15 AM 78.8 °F - 60.8 °F 54% 30.04 in 10.0 mi Calm Calm - N/A   Clear
12:35 AM 77.0 °F - 62.6 °F 61% 30.04 in 10.0 mi Calm Calm - N/A   Clear
12:55 AM 77.0 °F - 69.8 °F 78% 30.03 in 10.0 mi Calm Calm - N/A   Scattered Clouds
1:15 AM 77.0 °F - 71.6 °F 83% 30.04 in 10.0 mi Calm Calm - N/A   Scattered Clouds
1:35 AM 77.0 °F - 73.4 °F 89% 30.03 in 10.0 mi Calm Calm - N/A   Clear
1:55 AM 77.0 °F - 73.4 °F 89% 30.02 in 10.0 mi Calm Calm - N/A   Clear
2:15 AM 77.0 °F - 73.4 °F 89% 30.02 in 7.0 mi Calm Calm - N/A   Clear
2:35 AM 75.2 °F - 73.4 °F 94% 30.01 in 10.0 mi Calm Calm - N/A   Clear
2:55 AM 77.0 °F - 73.4 °F 89% 30.01 in 10.0 mi Calm Calm - N/A   Clear
3:15 AM 75.2 °F - 73.4 °F 94% 30.00 in 7.0 mi Calm Calm - N/A   Clear
3:35 AM 75.2 °F - 73.4 °F 94% 30.00 in 7.0 mi Calm Calm - N/A   Clear
3:55 AM 75.2 °F - 73.4 °F 94% 30.00 in 5.0 mi Calm Calm - N/A   Clear
4:15 AM 73.4 °F - - N/A% 29.99 in 7.0 mi Calm Calm - N/A   Clear
4:35 AM 73.4 °F - - N/A% 30.00 in 7.0 mi Calm Calm - N/A   Clear
4:55 AM 73.4 °F - - N/A% 30.01 in 7.0 mi Calm Calm - N/A   Clear
5:15 AM 73.4 °F - - N/A% 30.02 in 7.0 mi Calm Calm - N/A   Clear
5:35 AM 75.2 °F - - N/A% 30.03 in 10.0 mi Calm Calm - N/A   Clear
5:55 AM 77.0 °F - 75.2 °F 94% 30.03 in 7.0 mi Calm Calm - N/A   Clear
6:15 AM 77.0 °F - 68.0 °F 74% 30.04 in 10.0 mi Calm Calm - N/A   Clear
6:35 AM 77.0 °F - 66.2 °F 69% 30.04 in 10.0 mi Calm Calm - N/A   Clear
6:55 AM 77.0 °F - 66.2 °F 69% 30.05 in 10.0 mi NNW 5.8 mph - N/A   Clear
7:15 AM 77.0 °F - 64.4 °F 65% 30.06 in 10.0 mi NNW 3.5 mph - N/A   Clear
7:35 AM 77.0 °F - 64.4 °F 65% 30.06 in 10.0 mi NNW 3.5 mph - N/A   Clear
7:55 AM 78.8 °F - 59.0 °F 51% 30.07 in 10.0 mi NNW 3.5 mph - N/A   Clear
8:15 AM 78.8 °F - 55.4 °F 44% 30.08 in 10.0 mi NNW 3.5 mph - N/A   Clear
8:35 AM 80.6 °F 80.3 °F 53.6 °F 39% 30.08 in 10.0 mi North 8.1 mph - N/A   Clear
8:55 AM 82.4 °F - 51.8 °F 35% 30.08 in 10.0 mi North 9.2 mph - N/A   Clear
9:15 AM 82.4 °F - 50.0 °F 32% 30.09 in 10.0 mi North 6.9 mph - N/A   Clear
9:35 AM 84.2 °F - 50.0 °F 30% 30.09 in 10.0 mi North 5.8 mph - N/A   Clear
9:55 AM 86.0 °F - 50.0 °F 29% 30.09 in 10.0 mi North 4.6 mph - N/A   Clear
10:15 AM 87.8 °F - 48.2 °F 25% 30.09 in 10.0 mi North 4.6 mph - N/A   Clear
10:35 AM 87.8 °F - 48.2 °F 25% 30.10 in 10.0 mi North 4.6 mph - N/A   Clear
10:55 AM 89.6 °F - 46.4 °F 22% 30.10 in 10.0 mi NNE 5.8 mph - N/A   Clear
11:15 AM 89.6 °F - 44.6 °F 21% 30.10 in 10.0 mi NE 9.2 mph - N/A   Clear
11:35 AM 91.4 °F - 44.6 °F 20% 30.10 in 10.0 mi ENE 9.2 mph - N/A   Clear
11:55 AM 91.4 °F - 41.0 °F 17% 30.10 in 10.0 mi NE 5.8 mph - N/A   Clear
12:15 PM 93.2 °F - 39.2 °F 15% 30.09 in 10.0 mi ENE 8.1 mph - N/A   Clear
12:35 PM 93.2 °F - 37.4 °F 14% 30.09 in 10.0 mi NNE 5.8 mph - N/A   Clear
12:55 PM 95.0 °F - 30.2 °F 10% 30.09 in 10.0 mi NNE 8.1 mph - N/A   Clear
1:15 PM 95.0 °F - 28.4 °F 9% 30.08 in 10.0 mi North 4.6 mph - N/A   Scattered Clouds
1:35 PM 95.0 °F - 28.4 °F 9% 30.08 in 10.0 mi NW 3.5 mph - N/A   Clear
1:55 PM 95.0 °F - 28.4 °F 9% 30.08 in 10.0 mi NNE 10.4 mph - N/A   Scattered Clouds
2:15 PM 96.8 °F - 21.2 °F 7% 30.08 in 10.0 mi NNE 6.9 mph - N/A   Clear
2:35 PM 96.8 °F - 17.6 °F 6% 30.08 in 10.0 mi NE 5.8 mph - N/A   Clear
2:55 PM 96.8 °F - 1.4 °F 4% 30.07 in 10.0 mi North 4.6 mph - N/A   Clear
3:15 PM 96.8 °F - -5.8 °F 4% 30.07 in 10.0 mi NE 5.8 mph - N/A   Clear
3:35 PM 96.8 °F - -0.4 °F 4% 30.06 in 10.0 mi North 3.5 mph - N/A   Clear
3:55 PM 96.8 °F - -5.8 °F 4% 30.06 in 10.0 mi North 5.8 mph - N/A   Clear
4:15 PM 96.8 °F - -4.0 °F 4% 30.05 in 10.0 mi NNE 3.5 mph - N/A   Clear
4:35 PM 95.0 °F - 1.4 °F 4% 30.05 in 10.0 mi Calm Calm - N/A   Clear
4:55 PM 96.8 °F - 5.0 °F 4% 30.05 in 10.0 mi North 3.5 mph - N/A   Clear
5:15 PM 95.0 °F - 8.6 °F 4% 30.05 in 10.0 mi North 3.5 mph - N/A   Clear
5:35 PM 95.0 °F - -0.4 °F 4% 30.05 in 10.0 mi NNE 4.6 mph - N/A   Clear
5:55 PM 95.0 °F - 1.4 °F 4% 30.05 in 10.0 mi NNE 5.8 mph - N/A   Clear
6:15 PM 95.0 °F - 6.8 °F 4% 30.05 in 10.0 mi North 4.6 mph - N/A   Clear
6:35 PM 93.2 °F - 17.6 °F 6% 30.05 in 10.0 mi North 3.5 mph - N/A   Clear
6:55 PM 89.6 °F - 33.8 °F 14% 30.05 in 10.0 mi Calm Calm - N/A   Clear
7:15 PM 87.8 °F - 42.8 °F 21% 30.06 in 10.0 mi Calm Calm - N/A   Clear
7:35 PM 87.8 °F - 41.0 °F 19% 30.06 in 10.0 mi Calm Calm - N/A   Clear
7:55 PM 86.0 °F - 42.8 °F 22% 30.07 in 10.0 mi Calm Calm - N/A   Clear
8:15 PM 86.0 °F - 44.6 °F 23% 30.06 in 10.0 mi Calm Calm - N/A   Clear
8:35 PM 86.0 °F - 42.8 °F 22% 30.07 in 10.0 mi North 3.5 mph - N/A   Clear
8:55 PM 82.4 °F - 44.6 °F 26% 30.07 in 10.0 mi Calm Calm - N/A   Clear
9:15 PM 84.2 °F - 46.4 °F 27% 30.07 in 10.0 mi Calm Calm - N/A   Clear
9:35 PM 78.8 °F - 51.8 °F 39% 30.08 in 10.0 mi Calm Calm - N/A   Clear
9:55 PM 78.8 °F - 55.4 °F 44% 30.08 in 10.0 mi Calm Calm - N/A   Clear
10:15 PM 78.8 °F - 53.6 °F 42% 30.08 in 10.0 mi Calm Calm - N/A   Clear
10:35 PM 77.0 °F - 55.4 °F 47% 30.08 in 10.0 mi Calm Calm - N/A   Clear
10:55 PM 77.0 °F - 55.4 °F 47% 30.07 in 10.0 mi Calm Calm - N/A   Clear
11:15 PM 77.0 °F - 55.4 °F 47% 30.07 in 10.0 mi Calm Calm - N/A   Clear
11:35 PM 75.2 °F - 57.2 °F 53% 30.07 in 10.0 mi Calm Calm - N/A   Clear
11:55 PM 73.4 °F - 55.4 °F 53% 30.07 in 10.0 mi Calm Calm - N/A   Clear